Regional Weather Roundup
Issued by NWS

Home | Current Version | Previous Version | Graphics & Text | Print | Product List | Glossary On
Versions: 1 2 3 4 5 6 7 8 9 10 11 12 13 14 15 16 17 18 19 20 21 22 23 24 25 26 27 28 29 30 31 32 33 34 35 36 37 38 39 40 41 42 43 44 45 46 47 48 49 50
000
ASUS43 KMKX 231121
RWRWI

WISCONSIN REGIONAL WEATHER ROUNDUP
NATIONAL WEATHER SERVICE MILWAUKEE/SULLIVAN WI
500 AM CST SUN NOV 23 2014

NOTE: "FAIR" INDICATES FEW OR NO CLOUDS BELOW 12,000 FEET WITH NO
SIGNIFICANT WEATHER AND/OR OBSTRUCTIONS TO VISIBILITY.

WIZ001-002-006>008-014>016-023>028-231200-
NORTHWEST WISCONSIN

CITY           SKY/WX    TMP DP  RH WIND       PRES   REMARKS
SUPERIOR ARPT  FOG       37  37 100 NE6       29.43F VSB 1/2 WCI  32
ASHLAND        CLOUDY    35  34  96 CALM      29.46F FOG
HAYWARD        FOG       40  39  97 S8        29.45F VSB 1/2 WCI  34
SIREN          FOG       43  42  97 S6        29.44S VSB 1/2
CUMBERLAND     FOG       39  37  93 S3        29.46R VSB<1/4
RICE LAKE      FOG       40  39  97 SE5       29.49R VSB<1/4
CHETEK         FOG       41  41 100 SE7       29.48S VSB 1/4
LADYSMITH      FOG       45  44  97 S8        29.51S VSB 1/4
EAU CLAIRE     CLOUDY    46  45  96 S10       29.50S
MENOMONIE      CLOUDY    47  47 100 S9        29.48F FOG
NEW RICHMOND   CLOUDY    45  45 100 S9        29.45S FOG
OSCEOLA        FOG       43  43 100 S6        29.47S VSB 1/4
$$

WIZ003>005-009-010-017-018-231200-
NORTH CENTRAL WISCONSIN

CITY           SKY/WX    TMP DP  RH WIND       PRES   REMARKS
MANITOWISH WTR FOG       40  40 100 S12       29.51R VSB 1/2 WCI  32
ARBOR VITAE    SNOW      42  41  95 S8        29.52S VSB 1/4
WOODRUFF       SNOW      42  41  95 S8        29.52S VSB 1/4
RHINELANDER    FOG       41  41 100 S8        29.55S VSB 1/2
EAGLE RIVER    MIX PCPN  39  39 100 S7        29.53S VSB 1/2 WCI  34
LAND O LAKES   FOG       42  42 100 S8        29.53S VSB 3/4
PHILLIPS       FOG       42  42 100 S12       29.49F VSB 1/4
TOMAHAWK       FOG       41  40  97 CALM      29.55S VSB 1/4
MEDFORD        FOG       40  40 100 S9        29.54S VSB<1/4 WCI  33
MERRILL        FOG       40  40 100 CALM      29.56S VSB 1/4
$$

WIZ029-030-035-036-043>047-231200-
CENTRAL WISCONSIN

CITY           SKY/WX    TMP DP  RH WIND       PRES   REMARKS
WAUSAU         LGT RAIN  44  44 100 S7        29.56S VSB 1/4
MOSINEE        DRZL/FOG  43  43 100 S12       29.59S VSB 1/4
MARSHFIELD     FOG       46  45  96 S9        29.56F VSB 1/4
STEVENS POINT  CLOUDY    45  45 100 S8        29.59F FOG
WAUPACA        CLOUDY    49  48  96 S9        29.63S FOG
WAUTOMA        CLOUDY    48  48 100 S6        29.64S FOG
WISC RAPIDS    CLOUDY    49  47  93 S8        29.60F FOG
CAMP DOUGLAS   CLOUDY    50  50 100 S10       29.59F
$$

WIZ011>013-019>022-031-037>040-048>050-231200-
NORTHEAST WISCONSIN

CITY           SKY/WX    TMP DP  RH WIND       PRES   REMARKS
ANTIGO         FOG       36  36 100 S8        29.59S VSB 1/4 WCI  30
SHAWANO        CLOUDY    48  47  96 S9        29.63S FOG
OCONTO         CLOUDY    42  42 100 S7        29.64S
STURGEON BAY   CLOUDY    45  43  93 S10       29.67S
GREEN BAY      CLOUDY    48  46  93 S8        29.66S FOG
MANITOWOC      CLOUDY    45  45 100 S10       29.69S FOG
APPLETON       NOT AVBL
CLINTONVILLE   CLOUDY    46  45  93 S8        29.63S FOG
OSHKOSH        CLOUDY    48  46  93 S12       29.66S FOG
$$

WIZ032>034-041-042-053>061-231200-
SOUTHWEST WISCONSIN

CITY           SKY/WX    TMP DP  RH WIND       PRES   REMARKS
LA CROSSE      CLOUDY    51  48  89 S15       29.55F FOG
SPARTA         CLOUDY    50  48  93 S8        29.58S
VIROQUA        CLOUDY    48  48 100 S10G16    29.59S
BOSCOBEL       CLOUDY    51  48  89 S9        29.62S FOG
PRAIRIE DU CHI CLOUDY    50  48  93 SE6       29.60S FOG
PLATTEVILLE    CLOUDY    49  48  97 S12       29.65F
$$

WIZ056-057-062-063-064-067-068-231200-
SOUTH CENTRAL WISCONSIN

CITY           SKY/WX    TMP DP  RH WIND       PRES   REMARKS
REEDSBURG      CLOUDY    48  47  98 S9        29.62S FOG
BARABOO/DELLS  CLOUDY    47  46  93 S9        29.62F FOG
LONE ROCK      CLOUDY    52  47  83 SE6       29.63F HAZE
MINERAL POINT  LGT RAIN  50  46  87 S9        29.64F VSB 1/2
MADISON        CLOUDY    48  46  93 S9        29.67F FOG
MIDDLETON      CLOUDY    50  50  98 S8        29.66F
WATERTOWN      CLOUDY    47  47 100 S10       29.68S FOG
MONROE         CLOUDY    48  48 100 S18G25    29.66F FOG
JANESVILLE     CLOUDY    50  46  87 S13       29.70S FOG
$$

WIZ051-052-058>065-066-070>072-231200-
SOUTHEAST WISCONSIN

CITY           SKY/WX    TMP DP  RH WIND       PRES   REMARKS
MILWAUKEE      CLOUDY    49  47  93 S10       29.72S FOG
WAUKESHA       CLOUDY    46  46 100 S8        29.72F FOG
MILWAUKEE/TIMM CLOUDY    48  45  87 S12       29.71F FOG
RACINE         CLOUDY    50  47  89 S10       29.75S FOG
BURLINGTON     CLOUDY    47  47 100 S14G23    29.72S FOG
KENOSHA        CLOUDY    50  48  93 S15       29.73F FOG
FOND DU LAC    CLOUDY    48  46  93 S14G22    29.66S FOG
SHEBOYGAN      CLOUDY    45  44  97 S6        29.69S FOG
WEST BEND      CLOUDY    48  45  87 SW12      29.69S
JUNEAU         CLOUDY    47  46  98 S12       29.69S FOG
$$

LSZ147-162-231200-
LAKE SUPERIOR

STATION/POSITION TIME  TEMP    WIND        PRES    WAVE
                       AIR SEA DIR/SP/G            HT/PER
                 (UTC) (F)     (DEG/KT/KT) (MB)    (FT/S)
DEVILS ISLAND    1100   39     140/  6/  8  997.5F
PORT WING        1000   40     160/  4/  9  997.3
SAXON HARBOR     1040   45      CALM  /  5  997.6F
$$

LMZ867-665-643>646-231200-
LAKE MICHIGAN

STATION/POSITION TIME  TEMP    WIND        PRES    WAVE
                       AIR SEA DIR/SP/G            HT/PER
                 (UTC) (F)     (DEG/KT/KT) (MB)    (FT/S)
CHAMBERS ISLAND  1000   45     140/  5/ 12 1005.1F
N MID LAKE BUOY  1050   45 42  190/ 16/ 19 1005.4F   3/ 6
NORTHPORT PIER   1002   44     150/  7/ 12 1005.4F
SISTER BAY       1043          170/ 11/ 15   N/A
KEWAUNEE LAKESHO 1100   40     180/  9/ 10 1004.3R
SHEBOYGAN LAKESH 1100   45 38  170/ 17/ 18 1005.9F
PORT WASHINGTON  1000   48     210/  7/ 10 1006.8F
ATWATER BUOY     1100   50      40/  2/  6 1007.4F
MILWAUKEE LAKESH 1100   49     200/ 11/ 13   N/A
S MID LAKE BUOY  1050   45 43  170/ 17/ 21 1008.2F   3/ 4
KENOSHA   LAKESH 1100   45     170/ 11/ 15 1007.1F
$$

TC  - TEMPERATURE IN CELSIUS
VSB - VISIBILITY IN STATUTE MILES
WCI - WIND CHILL INDEX
HX  - HEAT INDEX



USA.gov is the U.S. government's official web portal to all federal, state and local government web resources and services.